Content
SEND FEEDBACK

Daily
Averages
Monthly
Summary
United States of America

STATEN ISLAND, NEW YORK


Home > North America > United States > New York
Elevation: 152 feet     Latitude: 40 35N     Longitude: 074 09W

WEATHER
 
SELECT A DAY
Number of Records: 189,762;   Date Range: 1/1/95 - 8/28/14
 
SHARE

PRINT THIS DATA

[ ← Previous Day ]
WEATHER ALMANAC - JANUARY 28, 2013
[ Next Day → ]
[ °C ]   °F
Weather ElementAverageHighLow
Temperature32.1 °F35.6 °F (10:38 pm)26.1 °F (1:51 am)
Dewpoint27.4 °F33.8 °F (10:38 pm)12.9 °F (1:51 am)
Humidity83.6 %96 % (2:51 pm)58 % (1:51 am)
Barometer30.25 in30.48 in (1:51 am)30.01 in (10:38 pm)
Wind Speed6.8 mph11.5 mph (4:51 pm)
Wind Gust19.6 mph (4:51 pm)
Weather ElementAverage
Visibility4.3 mi
Wind DirectionSSE (167.8 °)

Weather ElementTotal
Precipitation---
Heating Degree Days34.2 (Base 65)
Averaged from 41 records on January 28, 2013
WEATHER CONDITIONS BREAKOUT
WIND DIRECTION BREAKOUT
WEATHER BY HOUR - JANUARY 28, 2013
[ °C ]   °F
Local TimeTemperatureDewpointHumidityBarometerVisibilityWind DirectionWind SpeedGust SpeedPrecipitationEventsConditions
1:51 AM26.1 °F12.9 °F58 %30.48 in10.0 miCalmMostly Cloudy
2:51 AM26.1 °F12.9 °F58 %30.46 in10.0 miCalmMostly Cloudy
3:51 AM27.0 °F16.0 °F63 %30.45 in10.0 miCalmOvercast
4:51 AM28.0 °F15.1 °F58 %30.43 in10.0 miWSW (240°)3.5 mphOvercast
5:51 AM28.0 °F16.0 °F61 %30.41 in10.0 miCalmOvercast
6:51 AM30.0 °F17.1 °F59 %30.41 in10.0 miCalmOvercast
7:51 AM30.0 °F19.0 °F64 %30.41 in7.0 miSSE (160°)4.6 mphSnowLight Snow
8:51 AM30.9 °F19.9 °F64 %30.40 in6.0 miSouth (190°)4.6 mphHaze
9:11 AM30.2 °F21.2 °F69 %30.40 in2.0 miSW (230°)6.9 mphSnowLight Snow
9:51 AM30.0 °F26.1 °F85 %30.38 in2.0 miSouth (180°)6.9 mphSnowLight Snow
10:06 AM30.2 °F26.6 °F86 %30.37 in2.0 miSouth (170°)5.8 mphSnowLight Snow
10:27 AM30.2 °F28.4 °F93 %30.37 in2.0 miSouth (180°)5.8 mphSnowLight Snow
10:36 AM30.2 °F28.4 °F93 %30.36 in2.5 miSouth (180°)8.1 mphSnowLight Snow
10:41 AM30.2 °F26.6 °F86 %30.35 in2.5 miSouth (180°)6.9 mphSnowLight Snow
10:51 AM30.9 °F28.0 °F89 %30.35 in2.5 miSouth (170°)8.1 mph16.1 mphSnowLight Snow
11:15 AM32.0 °F28.4 °F87 %30.33 in2.5 miSouth (180°)6.9 mphSnowLight Snow
11:24 AM32.0 °F28.4 °F87 %30.32 in2.5 miSouth (180°)9.2 mphSnowLight Ice Pellets
11:37 AM32.0 °F28.4 °F87 %30.32 in2.5 miSSW (200°)10.4 mphRain-SnowLight Rain
11:48 AM33.8 °F28.4 °F81 %30.30 in2.5 miSouth (180°)8.1 mphSnowLight Snow
11:51 AM33.1 °F28.9 °F85 %30.30 in2.5 miSouth (190°)9.2 mphSnowLight Snow
11:58 AM33.8 °F28.4 °F81 %30.29 in2.5 miSouth (180°)10.4 mphRainLight Rain
12:11 PM33.8 °F30.2 °F87 %30.27 in2.5 miSouth (170°)9.2 mphRainLight Rain
12:22 PM33.8 °F30.2 °F87 %30.25 in2.5 miSouth (170°)6.9 mphRainIce Pellets
12:46 PM33.8 °F30.2 °F87 %30.23 in2.5 miSouth (170°)8.1 mphRainLight Ice Pellets
12:51 PM33.1 °F30.0 °F89 %30.23 in2.5 miSouth (170°)6.9 mphRainLight Ice Pellets
1:01 PM33.8 °F30.2 °F87 %30.20 in2.5 miSouth (170°)8.1 mphRainLight Rain
1:51 PM33.1 °F30.9 °F92 %30.18 in2.5 miSouth (170°)4.6 mphRainLight Rain
2:40 PM33.8 °F30.2 °F87 %30.13 in2.0 miSSE (160°)5.8 mphRainLight Rain
2:51 PM33.1 °F32.0 °F96 %30.13 in2.0 miSouth (170°)6.9 mphRainLight Rain
3:51 PM34.0 °F32.0 °F92 %30.11 in2.0 miVariable4.6 mphRainLight Rain
4:51 PM34.0 °F32.0 °F92 %30.09 in2.0 miSW (220°)11.5 mph19.6 mphRainLight Rain
5:36 PM33.8 °F32.0 °F93 %30.07 in5.0 miSW (220°)8.1 mphOvercast
5:51 PM34.0 °F33.1 °F96 %30.07 in5.0 miSW (230°)11.5 mphOvercast
6:51 PM34.0 °F33.1 °F96 %30.07 in5.0 miSW (230°)8.1 mphRainLight Rain
7:51 PM34.0 °F33.1 °F96 %30.06 in5.0 miSW (230°)6.9 mphRainLight Rain
8:51 PM34.0 °F33.1 °F96 %30.04 in5.0 miWSW (240°)9.2 mphOvercast
9:51 PM35.1 °F33.1 °F92 %30.02 in5.0 miWSW (240°)9.2 mphOvercast
10:38 PM35.6 °F33.8 °F93 %30.01 in5.0 miSW (230°)10.4 mphOvercast
10:51 PM35.1 °F33.1 °F92 %30.02 in5.0 miWSW (240°)11.5 mphOvercast
11:35 PM35.6 °F33.8 °F93 %30.02 in5.0 miSW (230°)8.1 mphOvercast
11:51 PM35.1 °F33.1 °F92 %30.02 in5.0 miSW (230°)6.9 mphMostly Cloudy
Hourly data recorded from KEWR, located miles away from Staten Island, New York







STORIES FROM OUR PARTNERS